| time (UTC) | temp C | wind direction | speed KPH | gust KPH | rain 1hr cm | rain 24hr cm | rain mn cm | humidity % | barometer mb |
| 20260502230704 | 17 | 269 | 0.0 | 1.6 | 0.00 | 0.46 | 0.00 | 54 | 1014.2 |
| 20260502230204 | 17 | 198 | 0.0 | 1.6 | 0.00 | 0.46 | 0.00 | 54 | 1014.2 |
| 20260502225204 | 18 | 189 | 0.0 | 3.2 | 0.00 | 0.46 | 0.00 | 54 | 1014.2 |
| 20260502223704 | 18 | 219 | 0.0 | 3.2 | 0.00 | 0.46 | 0.00 | 52 | 1014.3 |
| 20260502223204 | 18 | 180 | 0.0 | 8.0 | 0.00 | 0.46 | 0.00 | 52 | 1014.4 |
| 20260502222704 | 18 | 275 | 0.0 | 8.0 | 0.00 | 0.46 | 0.00 | 52 | 1014.3 |
| 20260502222204 | 18 | 277 | 0.0 | 4.8 | 0.00 | 0.46 | 0.00 | 51 | 1014.3 |
| 20260502221705 | 18 | 34 | 0.0 | 8.0 | 0.00 | 0.46 | 0.00 | 50 | 1014.3 |
| 20260502221204 | 19 | 291 | 0.0 | 11.3 | 0.00 | 0.46 | 0.00 | 49 | 1014.4 |
| 20260502220704 | 19 | 215 | 0.0 | 11.3 | 0.00 | 0.46 | 0.00 | 49 | 1014.4 |
| 20260502215704 | 19 | 232 | 1.6 | 6.4 | 0.00 | 0.46 | 0.46 | 48 | 1014.4 |
| 20260502215206 | 19 | 201 | 0.0 | 8.0 | 0.00 | 0.46 | 0.46 | 48 | 1014.4 |
| 20260502214704 | 19 | 240 | 1.6 | 8.0 | 0.00 | 0.46 | 0.46 | 47 | 1014.4 |
| 20260502214204 | 19 | 233 | 1.6 | 12.9 | 0.00 | 0.46 | 0.46 | 47 | 1014.3 |
| 20260502213704 | 19 | 349 | 1.6 | 12.9 | 0.00 | 0.46 | 0.46 | 47 | 1014.4 |
| 20260502211704 | 19 | 351 | 0.0 | 8.0 | 0.00 | 0.46 | 0.46 | 47 | 1014.4 |
| 20260502211204 | 19 | 216 | 0.0 | 6.4 | 0.00 | 0.46 | 0.46 | 47 | 1014.4 |
| 20260502210704 | 19 | 336 | 0.0 | 6.4 | 0.00 | 0.46 | 0.46 | 47 | 1014.5 |
| 20260502210204 | 19 | 15 | 0.0 | 3.2 | 0.00 | 0.46 | 0.46 | 47 | 1014.5 |
| 20260502205704 | 19 | 218 | 0.0 | 6.4 | 0.00 | 0.46 | 0.46 | 47 | 1014.5 |
| 20260502204705 | 19 | 133 | 0.0 | 6.4 | 0.00 | 0.46 | 0.46 | 48 | 1014.5 |
| 20260502203204 | 19 | 123 | 0.0 | 3.2 | 0.00 | 0.46 | 0.46 | 48 | 1014.6 |
| 20260502202704 | 19 | 123 | 0.0 | 3.2 | 0.00 | 0.46 | 0.46 | 49 | 1014.5 |
| 20260502202204 | 18 | 55 | 0.0 | 3.2 | 0.00 | 0.46 | 0.46 | 49 | 1014.5 |
| 20260502201704 | 18 | 287 | 0.0 | 4.8 | 0.00 | 0.46 | 0.46 | 50 | 1014.5 |
| 20260502201204 | 18 | 213 | 0.0 | 4.8 | 0.00 | 0.46 | 0.46 | 51 | 1014.5 |
| 20260502200705 | 18 | 37 | 0.0 | 4.8 | 0.00 | 0.46 | 0.46 | 52 | 1014.5 |
| 20260502195704 | 17 | 109 | 0.0 | 3.2 | 0.00 | 0.46 | 0.46 | 55 | 1014.6 |
| 20260502194704 | 17 | 186 | 0.0 | 0.0 | 0.00 | 0.46 | 0.46 | 62 | 1014.5 |
| 20260502194204 | 17 | 186 | 0.0 | 0.0 | 0.00 | 0.46 | 0.46 | 62 | 1014.6 |
| 20260502193704 | 17 | 186 | 0.0 | 0.0 | 0.00 | 0.46 | 0.46 | 63 | 1014.5 |
| 20260502193204 | 18 | 186 | 0.0 | 1.6 | 0.00 | 0.46 | 0.46 | 64 | 1014.5 |
| 20260502192704 | 18 | 186 | 0.0 | 1.6 | 0.00 | 0.46 | 0.46 | 65 | 1014.5 |
| 20260502192231 | 18 | 186 | 0.0 | 1.6 | 0.00 | 0.46 | 0.46 | 64 | 1014.4 |
| 20260502191704 | 18 | 186 | 0.0 | 0.0 | 0.00 | 0.46 | 0.46 | 63 | 1014.4 |
| 20260502191205 | 18 | 186 | 0.0 | 0.0 | 0.00 | 0.46 | 0.46 | 62 | 1014.4 |
| 20260502190704 | 18 | 186 | 0.0 | 0.0 | 0.00 | 0.46 | 0.46 | 62 | 1014.4 |
| 20260502190204 | 18 | 186 | 0.0 | 0.0 | 0.00 | 0.46 | 0.46 | 61 | 1014.3 |
| 20260502185704 | 19 | 186 | 0.0 | 0.0 | 0.00 | 0.46 | 0.46 | 61 | 1014.3 |
| 20260502185204 | 19 | 186 | 0.0 | 0.0 | 0.00 | 0.46 | 0.46 | 60 | 1014.4 |
| 20260502184704 | 20 | 186 | 0.0 | 0.0 | 0.00 | 0.46 | 0.46 | 60 | 1014.3 |
| 20260502184204 | 20 | 186 | 0.0 | 0.0 | 0.00 | 0.46 | 0.46 | 58 | 1014.3 |
| 20260502183204 | 21 | 186 | 0.0 | 1.6 | 0.00 | 0.46 | 0.46 | 56 | 1014.4 |
| 20260502182204 | 21 | 186 | 0.0 | 1.6 | 0.00 | 0.46 | 0.46 | 52 | 1014.3 |
| 20260502181204 | 22 | 56 | 0.0 | 0.0 | 0.00 | 0.46 | 0.46 | 50 | 1014.3 |
| 20260502180704 | 22 | 55 | 0.0 | 0.0 | 0.00 | 0.46 | 0.46 | 50 | 1014.4 |
| 20260502180204 | 22 | 55 | 0.0 | 0.0 | 0.00 | 0.46 | 0.46 | 49 | 1014.4 |
| 20260502164204 | 24 | 165 | 0.0 | 4.8 | 0.00 | 0.46 | 0.46 | 43 | 1014.6 |
| 20260502163704 | 24 | 255 | 0.0 | 4.8 | 0.00 | 0.46 | 0.46 | 42 | 1014.6 |
| 20260502163204 | 24 | 228 | 0.0 | 6.4 | 0.00 | 0.46 | 0.46 | 41 | 1014.6 |
| 20260502162704 | 24 | 270 | 0.0 | 6.4 | 0.00 | 0.46 | 0.46 | 41 | 1014.7 |
| 20260502161704 | 25 | 324 | 0.0 | 9.7 | 0.00 | 0.46 | 0.46 | 42 | 1014.8 |
| 20260502161204 | 25 | 175 | 1.6 | 14.5 | 0.00 | 0.46 | 0.46 | 41 | 1014.7 |
| 20260502160704 | 25 | 189 | 1.6 | 14.5 | 0.00 | 0.46 | 0.46 | 40 | 1014.8 |
| 20260502160204 | 25 | 26 | 1.6 | 14.5 | 0.00 | 0.46 | 0.46 | 40 | 1014.8 |
| 20260502152204 | 26 | 67 | 0.0 | 11.3 | 0.00 | 0.46 | 0.46 | 41 | 1015.3 |
| 20260502151705 | 26 | 188 | 0.0 | 11.3 | 0.00 | 0.46 | 0.46 | 41 | 1015.2 |
| 20260502151204 | 26 | 58 | 1.6 | 11.3 | 0.00 | 0.46 | 0.46 | 41 | 1015.3 |
| 20260502150705 | 25 | 188 | 1.6 | 17.7 | 0.00 | 0.46 | 0.46 | 40 | 1015.5 |
| 20260502150204 | 25 | 45 | 1.6 | 17.7 | 0.00 | 0.46 | 0.46 | 41 | 1015.6 |
| 20260502130705 | 25 | 251 | 0.0 | 4.8 | 0.00 | 0.46 | 0.46 | 54 | 1017.3 |
| 20260502130205 | 25 | 27 | 0.0 | 4.8 | 0.00 | 0.46 | 0.46 | 54 | 1017.4 |
| 20260502123704 | 25 | 327 | 1.6 | 8.0 | 0.03 | 0.46 | 0.46 | 54 | 1017.6 |
| 20260502122704 | 25 | 350 | 1.6 | 4.8 | 0.03 | 0.46 | 0.46 | 54 | 1017.8 |
| 20260502121705 | 25 | 28 | 1.6 | 12.9 | 0.03 | 0.46 | 0.46 | 54 | 1017.8 |
| 20260502121204 | 25 | 189 | 1.6 | 6.4 | 0.03 | 0.46 | 0.46 | 55 | 1017.9 |
| 20260502120204 | 24 | 231 | 1.6 | 9.7 | 0.03 | 0.46 | 0.46 | 57 | 1018.1 |
| 20260502115704 | 24 | 240 | 1.6 | 9.7 | 0.03 | 0.46 | 0.46 | 55 | 1018.1 |
| 20260502115204 | 25 | 190 | 1.6 | 9.7 | 0.03 | 0.46 | 0.46 | 54 | 1018.2 |
| 20260502113705 | 25 | 245 | 1.6 | 8.0 | 0.00 | 0.43 | 0.43 | 55 | 1018.3 |
| 20260502113204 | 25 | 246 | 1.6 | 8.0 | 0.00 | 0.43 | 0.43 | 54 | 1018.4 |
| 20260502112704 | 25 | 202 | 1.6 | 8.0 | 0.00 | 0.43 | 0.43 | 53 | 1018.4 |
| 20260502112204 | 25 | 355 | 1.6 | 8.0 | 0.00 | 0.43 | 0.43 | 52 | 1018.5 |
| 20260502111704 | 25 | 53 | 0.0 | 6.4 | 0.00 | 0.43 | 0.43 | 54 | 1018.5 |
| 20260502111205 | 24 | 293 | 0.0 | 6.4 | 0.00 | 0.43 | 0.43 | 55 | 1018.6 |
| 20260502110731 | 24 | 143 | 0.0 | 4.8 | 0.00 | 0.43 | 0.43 | 55 | 1018.6 |
| 20260502110205 | 24 | 138 | 0.0 | 11.3 | 0.00 | 0.43 | 0.43 | 56 | 1018.6 |
| 20260502105704 | 23 | 197 | 1.6 | 11.3 | 0.00 | 0.43 | 0.43 | 56 | 1018.6 |
| 20260502105204 | 23 | 70 | 1.6 | 8.0 | 0.00 | 0.43 | 0.43 | 56 | 1018.8 |
| 20260502104704 | 23 | 87 | 1.6 | 6.4 | 0.00 | 0.43 | 0.43 | 57 | 1018.9 |
| 20260502103704 | 23 | 207 | 1.6 | 6.4 | 0.00 | 0.43 | 0.43 | 60 | 1018.8 |
| 20260502103204 | 23 | 26 | 0.0 | 4.8 | 0.00 | 0.43 | 0.43 | 55 | 1018.9 |
| 20260502102704 | 22 | 340 | 0.0 | 4.8 | 0.00 | 0.43 | 0.43 | 55 | 1018.9 |
| 20260502102204 | 22 | 126 | 0.0 | 4.8 | 0.00 | 0.43 | 0.43 | 59 | 1019.0 |
| 20260502101704 | 22 | 0 | 0.0 | 6.4 | 0.00 | 0.43 | 0.43 | 56 | 1019.0 |
| 20260502101204 | 21 | 0 | 0.0 | 6.4 | 0.00 | 0.43 | 0.43 | 58 | 1019.2 |
| 20260502100705 | 21 | 99 | 0.0 | 3.2 | 0.00 | 0.43 | 0.43 | 60 | 1019.4 |
| 20260502100204 | 21 | 329 | 0.0 | 1.6 | 0.00 | 0.43 | 0.43 | 61 | 1019.4 |
| 20260502091204 | 18 | 272 | 0.0 | 4.8 | 0.00 | 0.43 | 0.43 | 74 | 1019.6 |
| 20260502090704 | 18 | 273 | 0.0 | 4.8 | 0.00 | 0.43 | 0.43 | 78 | 1019.5 |
| 20260502090204 | 18 | 273 | 0.0 | 0.0 | 0.00 | 0.43 | 0.43 | 77 | 1019.6 |
| 20260502071205 | 12 | 19 | 0.0 | 4.8 | 0.23 | 0.30 | 0.30 | 88 | 1020.1 |
| 20260502070704 | 11 | 19 | 1.6 | 6.4 | 0.23 | 0.30 | 0.30 | 88 | 1019.9 |
| 20260502070204 | 12 | 5 | 1.6 | 6.4 | 0.23 | 0.30 | 0.30 | 88 | 1020.0 |
| 20260502065704 | 12 | 23 | 1.6 | 6.4 | 0.25 | 0.28 | 0.28 | 88 | 1020.1 |
| 20260502065204 | 12 | 36 | 1.6 | 6.4 | 0.25 | 0.25 | 0.25 | 87 | 1020.0 |
| 20260502064704 | 12 | 57 | 1.6 | 6.4 | 0.23 | 0.23 | 0.23 | 85 | 1020.4 |
| 20260502064205 | 12 | 9 | 1.6 | 4.8 | 0.05 | 0.05 | 0.05 | 84 | 1020.5 |
| 20260502063704 | 12 | 244 | 0.0 | 4.8 | 0.05 | 0.05 | 0.05 | 81 | 1021.3 |
| 20260502063205 | 12 | 238 | 0.0 | 6.4 | 0.05 | 0.05 | 0.05 | 79 | 1021.3 |
| 20260502062704 | 12 | 11 | 1.6 | 6.4 | 0.05 | 0.05 | 0.05 | 77 | 1020.8 |
| 20260502062204 | 12 | 16 | 1.6 | 6.4 | 0.05 | 0.05 | 0.05 | 76 | 1020.5 |
| 20260502061204 | 12 | 49 | 0.0 | 4.8 | 0.05 | 0.05 | 0.05 | 80 | 1020.2 |
| 20260502060704 | 11 | 37 | 0.0 | 4.8 | 0.05 | 0.05 | 0.05 | 80 | 1020.2 |
| 20260502060204 | 11 | 69 | 0.0 | 4.8 | 0.05 | 0.05 | 0.05 | 79 | 1020.1 |
| 20260502055704 | 11 | 40 | 0.0 | 3.2 | 0.00 | 0.00 | 0.00 | 76 | 1020.2 |
| 20260502055204 | 11 | 34 | 0.0 | 3.2 | 0.00 | 0.00 | 0.00 | 75 | 1020.4 |
| 20260502054704 | 11 | 34 | 0.0 | 3.2 | 0.00 | 0.00 | 0.00 | 74 | 1020.5 |
| 20260502054204 | 11 | 27 | 0.0 | 3.2 | 0.00 | 0.00 | 0.00 | 75 | 1020.7 |
| 20260502053705 | 11 | 23 | 0.0 | 3.2 | 0.00 | 0.00 | 0.00 | 73 | 1020.5 |
| 20260502052704 | 11 | 160 | 0.0 | 0.0 | 0.00 | 0.00 | 0.00 | 74 | 1020.8 |
| 20260502052205 | 11 | 160 | 0.0 | 0.0 | 0.00 | 0.00 | 0.00 | 74 | 1020.8 |
| 20260502051704 | 11 | 160 | 0.0 | 0.0 | 0.00 | 0.00 | 0.00 | 74 | 1020.8 |
| 20260502051204 | 11 | 160 | 0.0 | 0.0 | 0.00 | 0.00 | 0.00 | 75 | 1020.9 |
| 20260502050704 | 10 | 160 | 0.0 | 0.0 | 0.00 | 0.00 | 0.00 | 76 | 1020.9 |
| 20260502045704 | 10 | 160 | 0.0 | 0.0 | 0.00 | 0.00 | 0.00 | 76 | 1020.9 |
| 20260502044705 | 10 | 160 | 0.0 | 1.6 | 0.00 | 0.00 | 0.00 | 78 | 1021.2 |
| 20260502044204 | 10 | 160 | 0.0 | 1.6 | 0.00 | 0.00 | 0.00 | 78 | 1021.3 |
| 20260502043204 | 9 | 78 | 0.0 | 1.6 | 0.00 | 0.00 | 0.00 | 78 | 1020.8 |
| 20260502042704 | 9 | 9 | 0.0 | 0.0 | 0.00 | 0.00 | 0.00 | 78 | 1020.6 |
| 20260502042204 | 9 | 9 | 0.0 | 0.0 | 0.00 | 0.00 | 0.00 | 79 | 1020.6 |
| 20260502041705 | 9 | 0 | 0.0 | 0.0 | 0.00 | 0.00 | 0.00 | 79 | 1020.5 |
| 20260502041204 | 9 | 0 | 0.0 | 0.0 | 0.00 | 0.00 | 0.00 | 79 | 1020.5 |
| 20260502040704 | 9 | 0 | 0.0 | 0.0 | 0.00 | 0.00 | 0.00 | 79 | 1020.4 |
| 20260502040204 | 8 | 355 | 0.0 | 0.0 | 0.00 | 0.00 | 0.00 | 79 | 1020.4 |
| 20260502035704 | 8 | 355 | 0.0 | 0.0 | 0.00 | 0.00 | 0.00 | 79 | 1020.4 |
| 20260502035204 | 8 | 355 | 0.0 | 0.0 | 0.00 | 0.00 | 0.00 | 80 | 1020.4 |
| 20260502034704 | 8 | 355 | 0.0 | 0.0 | 0.00 | 0.00 | 0.00 | 80 | 1020.3 |
| 20260502033704 | 8 | 355 | 0.0 | 0.0 | 0.00 | 0.00 | 0.00 | 80 | 1020.4 |
| 20260502032704 | 8 | 355 | 0.0 | 1.6 | 0.00 | 0.00 | 0.00 | 80 | 1020.5 |
| 20260502032204 | 8 | 355 | 0.0 | 1.6 | 0.00 | 0.00 | 0.00 | 80 | 1020.5 |
| 20260502031704 | 8 | 355 | 0.0 | 0.0 | 0.00 | 0.00 | 0.00 | 80 | 1020.5 |
| 20260502031204 | 8 | 344 | 0.0 | 0.0 | 0.00 | 0.00 | 0.00 | 80 | 1020.6 |
| 20260502030704 | 8 | 344 | 0.0 | 1.6 | 0.00 | 0.00 | 0.00 | 80 | 1020.7 |
| 20260502030204 | 8 | 344 | 0.0 | 1.6 | 0.00 | 0.00 | 0.00 | 80 | 1020.7 |
| 20260502025705 | 8 | 344 | 0.0 | 1.6 | 0.00 | 0.00 | 0.00 | 80 | 1020.7 |
| 20260502025205 | 8 | 323 | 0.0 | 0.0 | 0.00 | 0.00 | 0.00 | 79 | 1020.8 |
| 20260502024704 | 8 | 322 | 0.0 | 0.0 | 0.00 | 0.00 | 0.00 | 79 | 1021.0 |
| 20260502024204 | 8 | 322 | 0.0 | 1.6 | 0.00 | 0.00 | 0.00 | 79 | 1021.0 |
| 20260502023704 | 8 | 322 | 0.0 | 4.8 | 0.00 | 0.00 | 0.00 | 80 | 1021.2 |
| 20260502023204 | 8 | 322 | 0.0 | 9.7 | 0.00 | 0.00 | 0.00 | 80 | 1021.4 |
| 20260502022704 | 8 | 319 | 1.6 | 9.7 | 0.00 | 0.00 | 0.00 | 81 | 1021.3 |
| 20260502022204 | 8 | 300 | 1.6 | 9.7 | 0.00 | 0.00 | 0.00 | 81 | 1021.4 |
| 20260502021705 | 8 | 262 | 0.0 | 0.0 | 0.00 | 0.00 | 0.00 | 81 | 1021.5 |
| 20260502021233 | 8 | 46 | 0.0 | 0.0 | 0.00 | 0.00 | 0.00 | 80 | 1020.8 |
| 20260502020704 | 8 | 46 | 0.0 | 0.0 | 0.00 | 0.00 | 0.00 | 80 | 1020.8 |
| 20260502020204 | 8 | 46 | 0.0 | 0.0 | 0.00 | 0.00 | 0.00 | 80 | 1020.9 |
| 20260502015704 | 8 | 46 | 0.0 | 0.0 | 0.00 | 0.00 | 0.00 | 80 | 1020.8 |
| 20260502014704 | 8 | 46 | 0.0 | 0.0 | 0.00 | 0.00 | 0.00 | 80 | 1020.9 |
| 20260502014204 | 8 | 46 | 0.0 | 0.0 | 0.00 | 0.00 | 0.00 | 80 | 1020.9 |
| 20260502013733 | 8 | 46 | 0.0 | 0.0 | 0.00 | 0.00 | 0.00 | 79 | 1020.9 |
| 20260502013204 | 8 | 46 | 0.0 | 0.0 | 0.00 | 0.00 | 0.00 | 79 | 1020.9 |
| 20260502012705 | 8 | 46 | 0.0 | 0.0 | 0.00 | 0.00 | 0.00 | 79 | 1020.9 |
| 20260502012204 | 8 | 46 | 0.0 | 0.0 | 0.00 | 0.00 | 0.00 | 79 | 1021.0 |
| 20260502011705 | 8 | 46 | 0.0 | 0.0 | 0.00 | 0.00 | 0.00 | 78 | 1021.1 |
| 20260502011204 | 8 | 37 | 0.0 | 0.0 | 0.00 | 0.00 | 0.00 | 78 | 1021.1 |
| 20260502010704 | 8 | 37 | 0.0 | 0.0 | 0.00 | 0.00 | 0.00 | 78 | 1021.2 |
| 20260502010204 | 8 | 37 | 0.0 | 0.0 | 0.00 | 0.00 | 0.00 | 78 | 1021.1 |
| 20260502005204 | 8 | 37 | 0.0 | 3.2 | 0.00 | 0.00 | 0.00 | 78 | 1021.2 |
| 20260502004705 | 8 | 37 | 0.0 | 3.2 | 0.00 | 0.00 | 0.00 | 78 | 1021.1 |
| 20260502004205 | 8 | 37 | 0.0 | 1.6 | 0.00 | 0.00 | 0.00 | 79 | 1021.0 |
| 20260502003704 | 8 | 296 | 0.0 | 0.0 | 0.00 | 0.00 | 0.00 | 79 | 1021.2 |
| 20260502003204 | 8 | 260 | 0.0 | 0.0 | 0.00 | 0.00 | 0.00 | 79 | 1021.1 |
| 20260502002704 | 8 | 260 | 0.0 | 0.0 | 0.00 | 0.00 | 0.00 | 78 | 1021.1 |
| 20260502002205 | 8 | 260 | 0.0 | 1.6 | 0.00 | 0.00 | 0.00 | 78 | 1021.3 |
| 20260502000704 | 9 | 260 | 0.0 | 0.0 | 0.00 | 0.00 | 0.00 | 77 | 1021.4 |
| 20260502000204 | 9 | 260 | 0.0 | 0.0 | 0.00 | 0.00 | 0.00 | 77 | 1021.5 |
| 20260501235705 | 9 | 260 | 0.0 | 0.0 | 0.00 | 0.00 | 0.00 | 77 | 1021.5 |
| 20260501235205 | 9 | 259 | 0.0 | 4.8 | 0.00 | 0.00 | 0.00 | 77 | 1021.6 |
| 20260501234704 | 9 | 259 | 0.0 | 9.7 | 0.00 | 0.00 | 0.00 | 78 | 1021.8 |
| 20260501234204 | 9 | 259 | 1.6 | 9.7 | 0.00 | 0.00 | 0.00 | 78 | 1021.8 |
| 20260501233704 | 8 | 259 | 1.6 | 9.7 | 0.00 | 0.00 | 0.00 | 79 | 1021.9 |
| 20260501233204 | 8 | 225 | 0.0 | 4.8 | 0.00 | 0.00 | 0.00 | 78 | 1021.8 |
| 20260501232704 | 8 | 105 | 0.0 | 0.0 | 0.00 | 0.00 | 0.00 | 78 | 1021.6 |
| 20260501232204 | 8 | 104 | 0.0 | 0.0 | 0.00 | 0.00 | 0.00 | 77 | 1021.5 |